Hourly Weather Barletta

Today, 18 April, Sunday

Time Temperature Precipitation Wind Pressure Humidity
00:00 +7°C° 0 mm 3 mps 758 mmHg 76%
01:00 +5°C° 0 mm 3 mps 758 mmHg 76%
02:00 +6°C° 0 mm 2 mps 758 mmHg 73%
03:00 +7°C° 0 mm 2 mps 758 mmHg 71%
04:00 +7°C° 0 mm 2 mps 758 mmHg 68%
05:00 +8°C° 0 mm 2 mps 758 mmHg 67%
06:00 +9°C° 0 mm 2 mps 759 mmHg 65%
07:00 +10°C° 0 mm 1 mps 759 mmHg 64%
08:00 +11°C° 0 mm 1 mps 759 mmHg 63%
09:00 +12°C° 0 mm 1 mps 760 mmHg 62%
10:00 +13°C° 0 mm 1 mps 760 mmHg 61%
11:00 +13°C° 0 mm 1 mps 760 mmHg 60%
12:00 +14°C° 0 mm 1 mps 760 mmHg 60%
13:00 +14°C° 0 mm 2 mps 760 mmHg 60%
14:00 +14°C° 0.1 mm 2 mps 759 mmHg 63%
15:00 +14°C° 0.1 mm 2 mps 759 mmHg 67%
16:00 +12°C° 0.1 mm 3 mps 759 mmHg 70%
17:00 +11°C° 0.5 mm 3 mps 759 mmHg 78%
18:00 +10°C° 0.5 mm 3 mps 759 mmHg 85%
19:00 +9°C° 0.5 mm 3 mps 759 mmHg 92%
20:00 +8°C° 0.4 mm 3 mps 759 mmHg 93%
21:00 +8°C° 0.4 mm 3 mps 760 mmHg 94%
22:00 +7°C° 0.4 mm 2 mps 760 mmHg 95%
23:00 +7°C° 0.4 mm 2 mps 759 mmHg 94%

Tomorrow, 19 April, Monday

Time Temperature Precipitation Wind Pressure Humidity
00:00 +7°C° 0.4 mm 2 mps 759 mmHg 93%
01:00 +6°C° 0.4 mm 2 mps 759 mmHg 92%
02:00 +5°C° 0.2 mm 3 mps 759 mmHg 93%
03:00 +5°C° 0.2 mm 3 mps 758 mmHg 93%
04:00 +5°C° 0.2 mm 3 mps 758 mmHg 93%
05:00 +6°C° 0.1 mm 4 mps 758 mmHg 93%
06:00 +7°C° 0.1 mm 4 mps 758 mmHg 92%
07:00 +7°C° 0.1 mm 4 mps 759 mmHg 92%
08:00 +10°C° 0.2 mm 4 mps 758 mmHg 86%
09:00 +11°C° 0.2 mm 3 mps 758 mmHg 79%
10:00 +12°C° 0.2 mm 3 mps 758 mmHg 72%
11:00 +13°C° 0.2 mm 3 mps 758 mmHg 70%
12:00 +13°C° 0.2 mm 3 mps 758 mmHg 67%
13:00 +14°C° 0.2 mm 3 mps 758 mmHg 64%
14:00 +13°C° 0.1 mm 3 mps 758 mmHg 65%
15:00 +13°C° 0.1 mm 4 mps 758 mmHg 67%
16:00 +13°C° 0.1 mm 4 mps 758 mmHg 68%
17:00 +12°C° 0 mm 4 mps 758 mmHg 73%
18:00 +11°C° 0 mm 4 mps 758 mmHg 77%
19:00 +9°C° 0 mm 3 mps 758 mmHg 82%
20:00 +8°C° 0 mm 4 mps 759 mmHg 84%
21:00 +8°C° 0 mm 4 mps 759 mmHg 85%
22:00 +8°C° 0 mm 4 mps 759 mmHg 86%
23:00 +7°C° 0 mm 4 mps 759 mmHg 88%

Day after tomorrow, 20 April, Tuesday

Time Temperature Precipitation Wind Pressure Humidity
00:00 +7°C° 0 mm 3 mps 759 mmHg 89%
01:00 +7°C° 0 mm 3 mps 759 mmHg 90%
02:00 +7°C° 0 mm 3 mps 759 mmHg 89%
03:00 +5°C° 0 mm 3 mps 759 mmHg 88%
04:00 +5°C° 0 mm 3 mps 759 mmHg 86%
05:00 +7°C° 0 mm 3 mps 759 mmHg 81%
06:00 +9°C° 0 mm 3 mps 759 mmHg 76%
07:00 +10°C° 0 mm 3 mps 760 mmHg 72%
08:00 +12°C° 0 mm 3 mps 760 mmHg 64%
09:00 +13°C° 0 mm 3 mps 760 mmHg 57%
10:00 +16°C° 0 mm 3 mps 760 mmHg 50%
11:00 +17°C° 0 mm 3 mps 760 mmHg 48%
12:00 +18°C° 0 mm 3 mps 760 mmHg 45%
13:00 +18°C° 0 mm 3 mps 759 mmHg 43%
14:00 +17°C° 0.1 mm 3 mps 759 mmHg 48%
15:00 +17°C° 0.1 mm 3 mps 759 mmHg 54%
16:00 +16°C° 0.1 mm 3 mps 759 mmHg 59%
17:00 +14°C° 0.1 mm 3 mps 760 mmHg 64%
18:00 +12°C° 0.1 mm 3 mps 760 mmHg 69%
19:00 +11°C° 0.1 mm 3 mps 760 mmHg 74%
20:00 +10°C° 0 mm 3 mps 761 mmHg 76%
21:00 +10°C° 0 mm 3 mps 761 mmHg 79%
22:00 +9°C° 0 mm 2 mps 761 mmHg 82%
23:00 +9°C° 0 mm 2 mps 761 mmHg 82%

21 April, Wednesday

Time Temperature Precipitation Wind Pressure Humidity
00:00 +9°C° 0 mm 2 mps 761 mmHg 83%
01:00 +8°C° 0 mm 2 mps 761 mmHg 83%
02:00 +8°C° 0 mm 2 mps 761 mmHg 83%
03:00 +8°C° 0 mm 2 mps 761 mmHg 83%
04:00 +8°C° 0 mm 2 mps 761 mmHg 83%
05:00 +9°C° 0 mm 2 mps 761 mmHg 79%
06:00 +10°C° 0 mm 2 mps 762 mmHg 75%
07:00 +12°C° 0 mm 2 mps 762 mmHg 71%
08:00 +14°C° 0 mm 2 mps 762 mmHg 65%
09:00 +16°C° 0 mm 2 mps 762 mmHg 59%
10:00 +17°C° 0 mm 2 mps 762 mmHg 54%
11:00 +18°C° 0 mm 3 mps 762 mmHg 51%
12:00 +19°C° 0 mm 3 mps 762 mmHg 49%
13:00 +19°C° 0 mm 4 mps 761 mmHg 46%
14:00 +19°C° 0 mm 4 mps 761 mmHg 49%
15:00 +19°C° 0 mm 5 mps 761 mmHg 52%
16:00 +17°C° 0 mm 5 mps 761 mmHg 55%
17:00 +16°C° 0.1 mm 5 mps 761 mmHg 62%
18:00 +15°C° 0.1 mm 4 mps 761 mmHg 68%
19:00 +13°C° 0.1 mm 4 mps 761 mmHg 75%
20:00 +13°C° 0 mm 3 mps 761 mmHg 75%
21:00 +12°C° 0 mm 3 mps 762 mmHg 76%
22:00 +12°C° 0 mm 3 mps 762 mmHg 76%
23:00 +12°C° 0 mm 2 mps 762 mmHg 77%

22 April, Thursday

Time Temperature Precipitation Wind Pressure Humidity
00:00 +12°C° 0 mm 2 mps 762 mmHg 78%
01:00 +12°C° 0 mm 2 mps 762 mmHg 79%
02:00 +12°C° 0 mm 2 mps 762 mmHg 78%
03:00 +10°C° 0 mm 2 mps 762 mmHg 77%
04:00 +10°C° 0 mm 2 mps 762 mmHg 76%
05:00 +12°C° 0 mm 2 mps 762 mmHg 72%
06:00 +13°C° 0 mm 2 mps 762 mmHg 69%
07:00 +14°C° 0 mm 2 mps 762 mmHg 65%
08:00 +16°C° 0 mm 2 mps 762 mmHg 58%
09:00 +18°C° 0 mm 2 mps 762 mmHg 51%
10:00 +19°C° 0 mm 2 mps 762 mmHg 43%
11:00 +20°C° 0 mm 2 mps 762 mmHg 44%
12:00 +20°C° 0 mm 2 mps 762 mmHg 45%
13:00 +20°C° 0 mm 3 mps 762 mmHg 46%
14:00 +19°C° 0 mm 3 mps 762 mmHg 50%
15:00 +19°C° 0 mm 3 mps 762 mmHg 53%
16:00 +18°C° 0 mm 3 mps 762 mmHg 57%
17:00 +17°C° 0 mm 3 mps 762 mmHg 62%
18:00 +16°C° 0 mm 3 mps 762 mmHg 66%
19:00 +14°C° 0 mm 3 mps 762 mmHg 71%
20:00 +14°C° 0 mm 2 mps 762 mmHg 76%
21:00 +13°C° 0 mm 2 mps 762 mmHg 81%
22:00 +13°C° 0 mm 2 mps 762 mmHg 86%
23:00 +12°C° 0 mm 2 mps 762 mmHg 87%

23 April, Friday

Time Temperature Precipitation Wind Pressure Humidity
00:00 +12°C° 0 mm 2 mps 762 mmHg 88%
01:00 +12°C° 0 mm 1 mps 762 mmHg 89%
02:00 +12°C° 0 mm 1 mps 762 mmHg 88%
03:00 +12°C° 0 mm 1 mps 762 mmHg 88%
04:00 +12°C° 0 mm 1 mps 761 mmHg 87%
05:00 +13°C° 0 mm 1 mps 762 mmHg 83%
06:00 +14°C° 0 mm 1 mps 762 mmHg 80%
07:00 +15°C° 0 mm 1 mps 762 mmHg 76%
08:00 +16°C° 0 mm 1 mps 762 mmHg 72%
09:00 +18°C° 0 mm 1 mps 762 mmHg 68%
10:00 +18°C° 0 mm 2 mps 762 mmHg 64%
11:00 +19°C° 0.1 mm 2 mps 762 mmHg 62%
12:00 +19°C° 0.1 mm 3 mps 762 mmHg 61%
13:00 +20°C° 0.1 mm 4 mps 762 mmHg 60%
14:00 +19°C° 0.1 mm 4 mps 762 mmHg 64%
15:00 +18°C° 0.1 mm 4 mps 762 mmHg 68%
16:00 +16°C° 0.1 mm 5 mps 761 mmHg 72%
17:00 +15°C° 0 mm 4 mps 762 mmHg 77%
18:00 +14°C° 0 mm 4 mps 762 mmHg 81%
19:00 +13°C° 0 mm 3 mps 762 mmHg 86%
20:00 +13°C° 0.1 mm 3 mps 762 mmHg 87%
21:00 +13°C° 0.1 mm 3 mps 762 mmHg 88%
22:00 +13°C° 0.1 mm 3 mps 762 mmHg 90%
23:00 +12°C° 0.4 mm 3 mps 762 mmHg 92%
Show more